Weather Roundup
Issued by NWS Chicago, IL

Home | Current Version | Previous Version | Text Only | Print | Product List | Glossary Off
Versions: 1 2 3 4 5 6 7 8 9 10 11 12 13 14 15 16 17 18 19 20 21 22 23 24 25 26 27 28 29 30 31 32 33 34 35 36 37 38 39 40 41 42 43 44 45 46 47 48 49 50

000
NZUS59 KLOT 260406
HRRLOT

CHICAGO AREA WEATHER ROUNDUP
NATIONAL WEATHER SERVICE CHICAGO/ROMEOVILLE IL
1000 PM CST THU DEC 25 2014

NOTE: "FAIR" INDICATES FEW OR NO CLOUDS BELOW 12,000 FEET WITH NO
SIGNIFICANT WEATHER AND/OR OBSTRUCTIONS TO VISIBILITY.

* THESE STATIONS ARE NOT UNDER NWS QUALITY CONTROL. THEY ALSO MAY NOT
  REPORT WEATHER SUCH AS PRECIPITATION OR FOG.

ILZ005-006-012>014-019>023-260500-
NORTHEAST ILLINOIS

CITY           SKY/WX    TMP DP  RH WIND       PRES   REMARKS
OHARE          CLOUDY    39  33  79 S18       30.00R
MIDWAY         CLOUDY    41  33  73 S13       30.02R
AURORA         MOCLDY    38  32  79 S12       30.00R
LANSING*       MOCLDY    37  32  84 S10       30.03R
JOLIET*        MOCLDY    38  33  82 S7        30.02R
WAUKEGAN       CLOUDY    40  33  76 S18       29.98R
DUPAGE AIRPORT CLOUDY    38  33  82 S10       29.99R
WHEELING       CLOUDY    40  33  76 S10G22    30.02R
KANKAKEE*      CLOUDY    38  34  84 S12G17    30.04R
MORRIS*        MOCLDY    37  35  93 S12       30.00R
LEWIS AIRPORT* MOCLDY    37  34  89 S13       30.01R
NORTHERLY IS     N/A     40  32  73 S15         N/A
$$

WIZ051-052-058>065-066-070>072-260500-
SOUTHEAST WISCONSIN

CITY           SKY/WX    TMP DP  RH WIND       PRES   REMARKS
MILWAUKEE      CLOUDY    40  33  76 SW10      29.97R
KENOSHA*       CLOUDY    41  34  76 SW14G23   29.98R
RACINE*        CLOUDY    41  34  76 SW12      30.00R
BURLINGTON     MOCLDY    38  33  82 S13       29.97R
WAUKESHA       PTCLDY    36  32  87 S8        29.97R
WEST BEND        N/A     37  32  81 S8        29.95R
$$

INZ001>003-010>013-019-020-260500-
NORTHWEST INDIANA

CITY           SKY/WX    TMP DP  RH WIND       PRES   REMARKS
GARY*          MOCLDY    40  31  70 S8        30.04R
MICHIGAN CITY* NOT AVBL
RENSSELAER*    NOT AVBL
VALPARAISO     MOCLDY    36  32  85 S10       30.04F
$$

LMZ740>746-260500-
SOUTHERN LAKE MICHIGAN

STATION/POSITION TIME  SKY/WX   TEMP WIND        PRES    VSBY
                                AIR  DIR/SP/G
                 (UTC)          (F)  (DEG/KT/KT) (MB)    (MI)
HARRISON CRIB    0400            40  190/ 23/ 27   N/A
BURNHAM HARBOR   0400            40  200/ 17/ 17   N/A
CALUMET HARBOR   0400            39  180/ 12/ 19 1015.4R
BURNS HARBOR     NOT AVBL
MICHIGAN CITY    0400            38  150/ 13/ 17   N/A
$$

ABBREVIATIONS USED IN REMARKS
   TC - TEMPERATURE IN CELSIUS
  WCI - WIND CHILL INDEX
   HX - HEAT INDEX
  VSB - VISIBILITY
$$



USA.gov is the U.S. government's official web portal to all federal, state and local government web resources and services.